This is the latest recevied weather packets stored in our database for station/object DG7FDL-7. If no packets are shown the sender has not sent any weather packets the latest 10 day(s).
| Time | Temp. | Humidity | Pressure | Rain* | Wind** | Luminosity | Snow |
|---|---|---|---|---|---|---|---|
| 1778088522 | 22.22° C | 48% | 1007 hPa | - | - | - | - |
| 1778087625 | 22.22° C | 48% | 1006.8 hPa | - | - | - | - |
| 1778086721 | 21.67° C | 50% | 1006.6 hPa | - | - | - | - |
| 1778085827 | 22.22° C | 48% | 1006.5 hPa | - | - | - | - |
| 1778084921 | 22.22° C | 48% | 1006.4 hPa | - | - | - | - |
| 1778084031 | 22.78° C | 46% | 1006.2 hPa | - | - | - | - |
| 1778083121 | 22.78° C | 45% | 1006 hPa | - | - | - | - |
| 1778082222 | 22.78° C | 45% | 1006.1 hPa | - | - | - | - |
| 1778081318 | 22.78° C | 45% | 1006.1 hPa | - | - | - | - |
| 1778080421 | 22.78° C | 44% | 1006.2 hPa | - | - | - | - |
| 1778079519 | 22.22° C | 45% | 1006.2 hPa | - | - | - | - |
| 1778078620 | 22.78° C | 45% | 1006.1 hPa | - | - | - | - |
| 1778077717 | 22.22° C | 45% | 1006.1 hPa | - | - | - | - |
| 1778076819 | 22.22° C | 45% | 1006.1 hPa | - | - | - | - |
| 1778075917 | 22.78° C | 45% | 1006.2 hPa | - | - | - | - |
| 1778075018 | 22.22° C | 44% | 1006.2 hPa | - | - | - | - |
| 1778074116 | 21.67° C | 45% | 1006.3 hPa | - | - | - | - |
| 1778073217 | 22.78° C | 44% | 1006.3 hPa | - | - | - | - |
| 1778072316 | 22.22° C | 45% | 1006.4 hPa | - | - | - | - |
| 1778071417 | 22.22° C | 44% | 1006.4 hPa | - | - | - | - |
| 1778070516 | 22.22° C | 45% | 1006.3 hPa | - | - | - | - |
| 1778069616 | 22.22° C | 46% | 1006.4 hPa | - | - | - | - |
| 1778068716 | 22.22° C | 48% | 1006.2 hPa | - | - | - | - |
| 1778067820 | 21.67° C | 49% | 1006.3 hPa | - | - | - | - |
| 1778067496 | 21.67° C | 48% | 1006.2 hPa | - | - | - | - |
* Rain since midnight (hover to see other rain measurements)
** Current wind speed in m/s (hover to see current wind gust speed)